Terug naar catalogus

STARLINK-38247

ActiefCommunicatieSSO
NORAD 100303·PAYLOAD·🇺🇸 United States

Gelanceerd Aug 12, 2026 vanaf Vandenberg Space Force Base

Loading…

Volgende Passages (komende 24 uur)

TLE

VersSource: Space-Track

Epoch: Sep 14, 2026, 22:32 UTC

1 A0303U 26184C   26257.93921560  .00014557  00000-0  45226-3 0  9998
2 A0303  97.2829 123.0692 0001504  92.6560 267.4855 15.33451034  6503

Volg STARLINK-38247 in realtime met AllMySat

Download on the App Store